Regional Weather Roundup
Issued by NWS Sioux Falls, SD

Home | Current Version | Previous Version | Graphics & Text | Print | Product List | Glossary Off
Versions: 1 2 3 4 5 6 7 8 9 10 11 12 13 14 15 16 17 18 19 20 21 22 23 24 25 26 27 28 29 30 31 32 33 34 35 36 37 38 39 40 41 42 43 44 45 46 47 48 49 50

517
ASUS43 KFSD 140102
RWRFSD

WEATHER ROUNDUP FOR SE SOUTH DAKOTA/SW MINNESOTA/NW IOWA
NATIONAL WEATHER SERVICE SIOUX FALLS SD
700 PM CST SAT FEB 13 2016

NOTE: "FAIR" INDICATES FEW OR NO CLOUDS BELOW 12,000 FEET WITH NO
SIGNIFICANT WEATHER AND OR OBSTRUCTIONS TO VISIBILITY.


SDZ038>040-050-052>070-140200-
SOUTHEAST SOUTH DAKOTA

CITY           SKY/WX    TMP DP  RH WIND       PRES   REMARKS
BROOKINGS      LGT SNOW   9   3  77 S18G26    30.15S WCI -10
CHAMBERLAIN    NOT AVBL
HURON          LGT SNOW  13   8  81 SE26G33   30.05F WCI  -7
MADISON        LGT SNOW   9   9 100 S20G26    30.14S WCI -11
MITCHELL       LGT SNOW  14   8  77 SE28G37   30.12F WCI  -6
SIOUX FALLS    FLURRIES  11   5  77 SE20G28   30.20F WCI  -7
WINNER         CLOUDY    28  19  69 S22       29.87F WCI  14
YANKTON        CLOUDY    14   7  73 SE18      30.20R WCI  -3
$$

MNZ071-072-080-081-089-090-097-098-140200-
SOUTHWEST MINNESOTA

CITY           SKY/WX    TMP DP  RH WIND       PRES   REMARKS
FAIRMONT       CLOUDY    10   0  61 SE17      30.31F WCI  -7
JACKSON        CLOUDY    10   0  61 SE15      30.28F WCI  -6
LUVERNE        FLURRIES  12   3  67 S16       30.23F WCI  -4
MARSHALL       CLOUDY    10   1  67 SE18      30.25F WCI  -8
MONTEVIDEO     CLOUDY     9   1  72 S18G24    30.28F WCI -10
PIPESTONE      LGT SNOW  10  -2  56 S18G24    30.17F WCI  -8
REDWOOD FALLS  CLOUDY    10   3  73 SE20      30.31F WCI  -9
TRACY          CLOUDY    10   2  70 SE13G21   30.25F WCI  -5
WINDOM         CLOUDY     9   1  72 SE13      30.26F WCI  -7
WORTHINGTON    CLOUDY     7  -2  66 SE15      30.23F WCI -11
$$

IAZ001>003-012>014-020>022-031-032-NEZ013-014-SDZ071-140200-
NORTHWEST IOWA

CITY           SKY/WX    TMP DP  RH WIND       PRES   REMARKS
ESTHERVILLE    CLOUDY     8   1  73 SE20      30.30F WCI -11
SIOUX CITY     CLOUDY    16   7  67 SE20      30.23F WCI  -1
SPENCER        CLOUDY     9   1  70 SE17      30.29F WCI  -9
STORM LAKE     LGT SNOW   9   7  92 SE16      30.28F WCI  -9
$$

ABBREVIATIONS USED IN REMARKS
   TC - TEMPERATURE IN CELSIUS
  WCI - WIND CHILL INDEX
   HX - HEAT INDEX
  VSB - VISIBILITY





USA.gov is the U.S. government's official web portal to all federal, state and local government web resources and services.